| time (UTC) | temp F | wind direction | speed knots | gust knots | rain 1hr in | rain 24hr in | rain mn in | humidity % | barometer mb |
| 20260504034502 | 63 | 250 | 2.6 | 0.0 | 0.00 | 0.00 | 0.00 | 52 | 1006.0 |
| 20260504033002 | 63 | 250 | 2.6 | 0.0 | 0.00 | 0.00 | 0.00 | 52 | 1006.0 |
| 20260504031502 | 64 | 240 | 2.6 | 0.0 | 0.00 | 0.00 | 0.00 | 51 | 1006.1 |
| 20260504030003 | 64 | 240 | 2.6 | 0.0 | 0.00 | 0.00 | 0.00 | 51 | 1006.1 |
| 20260503204502 | 72 | 290 | 4.3 | 0.0 | 0.00 | 0.00 | 0.00 | 37 | 1004.7 |
| 20260503203002 | 72 | 270 | 6.1 | 0.0 | 0.00 | 0.00 | 0.00 | 37 | 1004.7 |
| 20260503201502 | 71 | 210 | 1.7 | 0.0 | 0.00 | 0.00 | 0.00 | 40 | 1004.4 |
| 20260503200002 | 71 | 210 | 1.7 | 0.0 | 0.00 | 0.00 | 0.00 | 40 | 1004.4 |
| 20260503194502 | 70 | 210 | 1.7 | 0.0 | 0.00 | 0.00 | 0.00 | 43 | 1004.3 |
| 20260503193002 | 70 | 240 | 0.9 | 0.0 | 0.00 | 0.00 | 0.00 | 43 | 1004.3 |
| 20260503191502 | 75 | 200 | 1.7 | 0.0 | 0.00 | 0.00 | 0.00 | 32 | 1004.1 |
| 20260503190002 | 75 | 200 | 1.7 | 0.0 | 0.00 | 0.00 | 0.00 | 32 | 1004.1 |
| 20260503184502 | 77 | 200 | 1.7 | 0.0 | 0.00 | 0.00 | 0.00 | 29 | 1004.1 |
| 20260503183002 | 77 | 240 | 2.6 | 0.0 | 0.00 | 0.00 | 0.00 | 29 | 1004.1 |
| 20260503181502 | 79 | 240 | 2.6 | 0.0 | 0.00 | 0.00 | 0.00 | 26 | 1004.1 |
| 20260503180002 | 79 | 230 | 4.3 | 0.0 | 0.00 | 0.00 | 0.00 | 26 | 1004.1 |
| 20260503174502 | 80 | 230 | 4.3 | 0.0 | 0.00 | 0.00 | 0.00 | 24 | 1004.2 |
| 20260503173002 | 80 | 230 | 5.2 | 0.0 | 0.00 | 0.00 | 0.00 | 24 | 1004.2 |
| 20260503171502 | 81 | 220 | 6.1 | 0.0 | 0.00 | 0.00 | 0.00 | 24 | 1004.3 |
| 20260503081502 | 68 | 180 | 3.5 | 0.0 | 0.00 | 0.00 | 0.00 | 43 | 1008.0 |
| 20260503071502 | 62 | 200 | 3.5 | 0.0 | 0.00 | 0.00 | 0.00 | 46 | 1008.0 |
| 20260503054502 | 55 | 230 | 0.9 | 0.0 | 0.00 | 0.00 | 0.00 | 56 | 1007.9 |
| 20260503053002 | 55 | 170 | 2.6 | 0.0 | 0.00 | 0.00 | 0.00 | 56 | 1007.9 |
| 20260503051502 | 53 | 170 | 1.7 | 0.0 | 0.00 | 0.00 | 0.00 | 61 | 1008.0 |
| 20260503050003 | 53 | 170 | 1.7 | 0.0 | 0.00 | 0.00 | 0.00 | 61 | 1008.0 |
| 20260503044503 | 51 | 170 | 1.7 | 0.0 | 0.00 | 0.00 | 0.00 | 63 | 1008.1 |
| 20260503043002 | 51 | 170 | 1.7 | 0.0 | 0.00 | 0.00 | 0.00 | 63 | 1008.1 |
| 20260503041502 | 52 | 170 | 1.7 | 0.0 | 0.00 | 0.00 | 0.00 | 61 | 1008.1 |
| 20260503040002 | 52 | 170 | 1.7 | 0.0 | 0.00 | 0.00 | 0.00 | 61 | 1008.1 |